Weather History for Danville, IL

Change the Weather History Date:

Friday, February 1, 2013

  Actual Average (KLAF) Record (KLAF)
Temperature  
Mean Temperature 13 °F 27 °F  
Max Temperature 21 °F 35 °F 57 °F (1968)
Min Temperature 5 °F 20 °F -8 °F (1979)
Degree Days  
Heating Degree Days 52 38  
Month to date heating degree days 38  
Since 1 July heating degree days 3406  
Cooling Degree Days 0 0  
Month to date cooling degree days 0  
Year to date cooling degree days 0  
Moisture  
Dew Point 5 °F    
Average Humidity 68    
Maximum Humidity 76    
Minimum Humidity 58    
Precipitation  
Precipitation 0.00 in 0.06 in 1.26 in (1968)
Month to date precipitation 0.06  
Year to date precipitation 1.92  
Sea Level Pressure  
Sea Level Pressure 30.29 in    
Wind  
Wind Speed 14 mph (WSW)    
Max Wind Speed 20 mph    
Max Gust Speed 29 mph    
Visibility 10 miles    
Events Snow    
T = Trace of Precipitation, MM = Missing Value Source: NWS Daily Summary

Daily Weather History Graph

Daily Weather History Graph

Search for Another Location

Airport:

Trip Planner

Search our weather history database for the weather conditions in past years. The results will help you decide how hot, cold, wet, or windy it might be!

Date:

Astronomy

Feb. 01, 2013 Rise Set
Actual Time 6:59 AM CST 5:09 PM CST
Civil Twilight 6:30 AM CST 5:38 PM CST
Nautical Twilight 5:57 AM CST 6:10 PM CST
Astronomical Twilight 5:25 AM CST 6:42 PM CST
Moon 11:16 PM CST (2/1) 9:31 AM CST (2/1)
Length of Visible Light 11h 07m
Length of Day
10h 10m
Waning Gibbous, 70% of the Moon is Illuminated
Feb 1
Waning Gibbous
Feb 3
Last Quarter
Feb 10
New
Feb 17
First Quarter
Feb 25
Full

Hourly Weather History & Observations

Time (CST) Temp. Windchill Dew Point Humidity Pressure Visibility Wind Dir Wind Speed Gust Speed Precip Events Conditions
12:15 AM 7.7 °F -9.5 °F 1.6 °F 76% 30.20 in 5.0 mi WNW 15.0 mph 28.8 mph N/A Snow Light Snow
12:35 AM 7.3 °F -10.0 °F -0.2 °F 71% 30.21 in 10.0 mi WNW 15.0 mph 24.2 mph N/A   Scattered Clouds
12:55 AM 7.0 °F -11.0 °F 0.7 °F 75% 30.22 in 10.0 mi WNW 16.1 mph 20.7 mph N/A   Scattered Clouds
1:15 AM 7.3 °F -11.1 °F -0.0 °F 72% 30.23 in 10.0 mi West 17.3 mph 20.7 mph N/A   Scattered Clouds
1:55 AM 6.6 °F -12.1 °F -1.5 °F 69% 30.25 in 10.0 mi WNW 17.3 mph 25.3 mph N/A   Clear
2:15 AM 6.4 °F -12.3 °F -1.7 °F 69% 30.25 in 10.0 mi WNW 17.3 mph 28.8 mph N/A   Clear
2:35 AM 6.3 °F -13.6 °F -1.7 °F 70% 30.26 in 10.0 mi West 19.6 mph 25.3 mph N/A   Clear
2:55 AM 6.1 °F -11.6 °F -1.3 °F 72% 30.26 in 10.0 mi West 15.0 mph 24.2 mph N/A   Clear
3:15 AM 6.1 °F -9.5 °F -1.1 °F 72% 30.27 in 10.0 mi West 11.5 mph 25.3 mph N/A   Clear
3:35 AM 5.9 °F -11.2 °F -2.0 °F 70% 30.28 in 10.0 mi WNW 13.8 mph 27.6 mph N/A   Clear
3:55 AM 5.9 °F -11.8 °F -1.5 °F 72% 30.28 in 10.0 mi West 15.0 mph 24.2 mph N/A   Clear
4:15 AM 5.9 °F -11.8 °F -1.1 °F 73% 30.28 in 10.0 mi West 15.0 mph 20.7 mph N/A   Clear
4:35 AM 6.1 °F -7.8 °F -0.4 °F 75% 30.29 in 10.0 mi WNW 9.2 mph - N/A   Clear
4:55 AM 6.1 °F -10.2 °F -0.2 °F 75% 30.30 in 10.0 mi West 12.7 mph 19.6 mph N/A   Scattered Clouds
5:15 AM 6.3 °F -9.2 °F -0.4 °F 74% 30.30 in 10.0 mi West 11.5 mph 21.9 mph N/A   Scattered Clouds
5:35 AM 5.9 °F -11.2 °F -0.9 °F 73% 30.31 in 10.0 mi WNW 13.8 mph 18.4 mph N/A   Scattered Clouds
5:55 AM 5.7 °F -9.1 °F -0.9 °F 74% 30.31 in 10.0 mi WNW 10.4 mph 18.4 mph N/A   Scattered Clouds
6:15 AM 5.5 °F -10.9 °F -1.7 °F 72% 30.32 in 10.0 mi West 12.7 mph 18.4 mph N/A   Clear
6:35 AM 5.0 °F -13.6 °F -2.0 °F 73% 30.32 in 10.0 mi West 16.1 mph - N/A   Clear
6:55 AM 5.0 °F -10.8 °F -2.0 °F 73% 30.32 in 10.0 mi West 11.5 mph 19.6 mph N/A   Clear
7:15 AM 5.0 °F -10.0 °F -1.7 °F 74% 30.33 in 10.0 mi West 10.4 mph 18.4 mph N/A   Clear
7:35 AM 5.5 °F -7.4 °F -0.8 °F 75% 30.34 in 10.0 mi West 8.1 mph - N/A   Clear
7:55 AM 5.9 °F -9.7 °F -0.8 °F 74% 30.35 in 10.0 mi WNW 11.5 mph - N/A   Clear
8:15 AM 6.3 °F -10.0 °F -0.9 °F 72% 30.36 in 10.0 mi West 12.7 mph - N/A   Clear
8:35 AM 7.5 °F -9.1 °F -0.2 °F 71% 30.36 in 10.0 mi West 13.8 mph 19.6 mph N/A   Clear
8:55 AM 8.4 °F -6.5 °F 0.3 °F 70% 30.37 in 10.0 mi West 11.5 mph - N/A   Clear
9:15 AM 8.8 °F -6.8 °F 0.7 °F 70% 30.37 in 10.0 mi West 12.7 mph 19.6 mph N/A   Clear
9:35 AM 9.5 °F -5.2 °F 1.2 °F 69% 30.38 in 10.0 mi West 11.5 mph 18.4 mph N/A   Clear
9:55 AM 10.4 °F -6.6 °F 2.1 °F 69% 30.38 in 10.0 mi West 16.1 mph - N/A   Scattered Clouds
10:15 AM 10.9 °F -2.6 °F 3.0 °F 70% 30.38 in 10.0 mi West 10.4 mph 16.1 mph N/A   Scattered Clouds
10:35 AM 11.3 °F -3.6 °F 3.2 °F 70% 30.39 in 10.0 mi WSW 12.7 mph - N/A   Scattered Clouds
10:55 AM 12.7 °F -2.5 °F 4.8 °F 71% 30.38 in 10.0 mi WSW 13.8 mph 17.3 mph N/A   Scattered Clouds
11:15 AM 12.9 °F 1.6 °F 3.0 °F 65% 30.38 in 10.0 mi West 8.1 mph 11.5 mph N/A   Scattered Clouds
11:35 AM 13.6 °F 0.7 °F 4.6 °F 67% 30.37 in 10.0 mi WSW 10.4 mph - N/A   Scattered Clouds
11:55 AM 14.2 °F 0.7 °F 4.3 °F 65% 30.36 in 10.0 mi WSW 11.5 mph 18.4 mph N/A   Clear
12:15 PM 14.9 °F 2.3 °F 5.4 °F 66% 30.36 in 10.0 mi WSW 10.4 mph 18.4 mph N/A   Clear
12:35 PM 15.8 °F 0.9 °F 6.1 °F 66% 30.35 in 10.0 mi WSW 15.0 mph 18.4 mph N/A   Scattered Clouds
12:55 PM 17.2 °F 2.2 °F 7.2 °F 65% 30.34 in 10.0 mi WSW 16.1 mph - N/A   Scattered Clouds
1:15 PM 16.9 °F 2.3 °F 6.3 °F 63% 30.33 in 10.0 mi WSW 15.0 mph 19.6 mph N/A   Clear
1:35 PM 17.1 °F 3.6 °F 5.4 °F 60% 30.33 in 10.0 mi WSW 12.7 mph 18.4 mph N/A   Clear
1:55 PM 18.1 °F 4.4 °F 7.0 °F 62% 30.32 in 10.0 mi West 13.8 mph 18.4 mph N/A   Scattered Clouds
2:15 PM 18.7 °F 6.3 °F 7.3 °F 61% 30.32 in 10.0 mi WSW 11.5 mph - N/A   Scattered Clouds
2:35 PM 18.7 °F 5.7 °F 7.0 °F 60% 30.31 in 10.0 mi WSW 12.7 mph - N/A   Scattered Clouds
2:55 PM 19.0 °F 5.0 °F 7.5 °F 61% 30.31 in 10.0 mi SW 15.0 mph 20.7 mph N/A   Clear
3:15 PM 19.4 °F 6.6 °F 6.8 °F 58% 30.31 in 10.0 mi WSW 12.7 mph 20.7 mph N/A   Clear
3:35 PM 19.0 °F 4.5 °F 7.0 °F 59% 30.31 in 10.0 mi WSW 16.1 mph 23.0 mph N/A   Scattered Clouds
3:55 PM 19.2 °F 4.7 °F 7.0 °F 59% 30.31 in 10.0 mi SW 16.1 mph 19.6 mph N/A   Scattered Clouds
4:15 PM 19.4 °F 7.9 °F 7.2 °F 59% 30.30 in 10.0 mi SW 10.4 mph - N/A   Scattered Clouds
4:35 PM 19.0 °F 5.0 °F 6.8 °F 59% 30.29 in 10.0 mi SW 15.0 mph - N/A   Clear
4:55 PM 18.5 °F 5.5 °F 7.0 °F 61% 30.28 in 10.0 mi WSW 12.7 mph - N/A   Clear
5:15 PM 18.1 °F 8.9 °F 7.7 °F 64% 30.27 in 10.0 mi SSW 6.9 mph - N/A   Clear
5:35 PM 18.1 °F 7.1 °F 8.1 °F 65% 30.29 in 10.0 mi SW 9.2 mph - N/A   Clear
5:55 PM 18.3 °F 7.3 °F 8.2 °F 65% 30.28 in 10.0 mi SW 9.2 mph - N/A   Scattered Clouds
6:15 PM 19.0 °F 6.8 °F 8.8 °F 64% 30.28 in 10.0 mi SW 11.5 mph 17.3 mph N/A   Overcast
6:35 PM 19.4 °F 8.6 °F 10.4 °F 68% 30.29 in 10.0 mi SW 9.2 mph - N/A   Overcast
6:55 PM 19.8 °F 8.3 °F 9.5 °F 64% 30.28 in 10.0 mi SSW 10.4 mph - N/A   Overcast
7:15 PM 19.9 °F 8.6 °F 9.7 °F 64% 30.28 in 10.0 mi SW 10.4 mph - N/A   Overcast
7:35 PM 20.3 °F 7.2 °F 9.7 °F 64% 30.28 in 10.0 mi SW 13.8 mph - N/A   Overcast
7:55 PM 20.3 °F 7.2 °F 9.9 °F 64% 30.26 in 10.0 mi SW 13.8 mph - N/A   Overcast
8:15 PM 20.7 °F 8.2 °F 9.7 °F 63% 30.25 in 10.0 mi SSW 12.7 mph - N/A   Overcast
8:35 PM 20.8 °F 7.3 °F 10.6 °F 65% 30.25 in 10.0 mi SW 15.0 mph 18.4 mph N/A   Overcast
8:55 PM 20.8 °F 6.8 °F 10.4 °F 64% 30.24 in 10.0 mi SSW 16.1 mph - N/A   Overcast
9:15 PM 20.7 °F 8.2 °F 11.5 °F 68% 30.23 in 10.0 mi SSW 12.7 mph - N/A   Overcast
9:35 PM 20.7 °F 8.2 °F 11.8 °F 69% 30.23 in 10.0 mi SSW 12.7 mph 18.4 mph N/A   Overcast
9:55 PM 20.7 °F 6.6 °F 11.7 °F 68% 30.22 in 10.0 mi SSW 16.1 mph 19.6 mph N/A   Mostly Cloudy
10:15 PM 20.5 °F 7.4 °F 11.3 °F 68% 30.21 in 10.0 mi SSW 13.8 mph 18.4 mph N/A   Mostly Cloudy
10:35 PM 20.3 °F 7.2 °F 11.5 °F 69% 30.21 in 10.0 mi SSW 13.8 mph - N/A   Mostly Cloudy
10:55 PM 20.7 °F 8.2 °F 11.3 °F 67% 30.20 in 10.0 mi SSW 12.7 mph 19.6 mph N/A   Scattered Clouds
11:15 PM 21.2 °F 9.5 °F 12.2 °F 68% 30.19 in 10.0 mi South 11.5 mph - N/A   Clear
11:35 PM 21.0 °F 8.6 °F 12.2 °F 69% 30.19 in 10.0 mi South 12.7 mph 19.6 mph N/A   Scattered Clouds
11:55 PM 21.0 °F 8.1 °F 12.2 °F 69% 30.18 in 10.0 mi SSW 13.8 mph - N/A   Mostly Cloudy